Regional Weather Roundup
Issued by NWS Goodland, KS

Home | Current Version | Previous Version | Text Only | Print | Product List | Glossary Off
Versions: 1 2 3 4 5 6 7 8 9 10 11 12 13 14 15 16 17 18 19 20 21 22 23 24 25 26 27 28 29 30 31 32 33 34 35 36 37 38 39 40 41 42 43 44 45 46 47 48 49 50

000
ASUS43 KGLD 251159
RWRGLD

GOODLAND FORECAST AREA HOURLY WEATHER ROUNDUP
NATIONAL WEATHER SERVICE GOODLAND KS
600 AM MDT WED MAY 25 2016

...OFFICIAL OBSERVATIONS...

CITY           SKY/WX    TMP DP  RH WIND       PRES   REMARKS
GOODLAND KS    CLOUDY    56  55  97 NE14G23   29.91R FOG
HILL CITY KS   CLOUDY    61  55  81 NE13      29.85F
IMPERIAL NEB   CLEAR     52  49  89 E5        29.89F
MCCOOK NEB     CLOUDY    60  55  83 E8        29.87R
AKRON CO       CLOUDY    54  51  90 E12       29.94R
BURLINGTON CO  CLOUDY    57  55  93 NE14      29.92R
LIMON CO       CLOUDY    52  52 100 NW8       29.97R FOG
$$

...UNOFFICIAL OBSERVATIONS...

CITY           SKY/WX    TMP DP  RH WIND       PRES   REMARKS
COLBY KS       CLOUDY    57  57 100 NE12G18   29.90R
GOVE KS          N/A     63  32  31 MISG        N/A
LENORA KS        N/A     61  32  33 MISG        N/A
NORTON KS      CLOUDY    61  52  72 NE15      29.87R
SHARON SPRINGS   N/A     56  55  95 N12G20      N/A
TRIBUNE KS     MOCLDY    54  50  87 NW17      29.89R
KIT CARSON CO    N/A     51  47  88 CALM        N/A
YUMA CO          N/A     55  52  89 E8G15       N/A
$$




USA.gov is the U.S. government's official web portal to all federal, state and local government web resources and services.